Regional Weather Roundup
Issued by NWS

Home | Current Version | Previous Version | Graphics & Text | Print | Product List | Glossary On
Versions: 1 2 3 4 5 6 7 8 9 10 11 12 13 14 15 16 17 18 19 20 21 22 23 24 25 26 27
000
ASUS45 KSLC 112110
RWRUT

UTAH REGIONAL WEATHER ROUNDUP
NATIONAL WEATHER SERVICE SALT LAKE CITY UT
200 PM MST MON DEC 11 2017

UTZ001>011-023>025-112200-

NORTHERN UTAH

CITY           SKY/WX    TMP DP  RH WIND       PRES   REMARKS
BRIGHAM CITY   SUNNY     34  24  66 CALM      30.59F
DUGWAY         MOSUNNY   34  21  60 NW5       30.57F WCI  29
HILL AFB       MOSUNNY   33  21  60 W5        30.55F WCI  29
LOGAN            N/A     24  18  77 CALM      30.59F
OGDEN          MOSUNNY   34  23  64 NW3       30.57F
SALT LAKE CITY FOG       29  26  89 N6        30.59F VSB 1/4 WCI  23
TOOELE VALLEY  CLOUDY    27  27 100 NW3       30.60F FOG
WENDOVER       SUNNY     29  19  66 E5        30.59F WCI  24
HEBER CITY       N/A     43   9  24 CALM      30.49F
WEST JORDAN    MOSUNNY   31  26  82 N5        30.57F WCI  27

$$

UTZ011>015-024>027-112200-

CENTRAL/NORTHEAST UTAH

CITY           SKY/WX    TMP DP  RH WIND       PRES   REMARKS
PROVO AIRPORT  SUNNY     34  19  54 W3        30.56F
MOAB/CANYONLAN SUNNY     45   5  19 W3        30.47F
DELTA          SUNNY     36  14  41 CALM      30.54F
PRICE          SUNNY     47  -2  13 CALM      30.45F
ROOSEVELT      SUNNY     37   9  30 CALM      30.53F
VERNAL         SUNNY     39   9  29 CALM      30.50F

$$

UTZ013>016-019>022-027-112200-

SOUTHERN UTAH

CITY           SKY/WX    TMP DP  RH WIND       PRES   REMARKS
BRYCE CANYON   SUNNY     55 -24   3 NE5       30.49F
CEDAR CITY     SUNNY     44   3  18 NW5       30.47F
MILFORD        SUNNY     40  17  39 NE13      30.51F WCI  32
ST GEORGE      CLEAR     51   5  15 CALM      30.41F
HANKSVILLE     SUNNY     45   5  19 CALM      30.50F
BLANDING         N/A     47   1  15 SW3       30.49F

$$

REGIONAL REPORTS     COLORADO/ARIZONA

CITY           SKY/WX    TMP DP  RH WIND       PRES   REMARKS
CRAIG, CO      SUNNY     37  14  38 CALM      30.50F
GRAND JUNCTION SUNNY     47   3  16 CALM      30.47F
RIFLE, CO      SUNNY     48   0  13 CALM      30.47F
MONTROSE, CO   SUNNY     45  -1  14 VRB3      30.49F
CORTEZ, CO     SUNNY     46   1  15 SW6       30.41F
COLORADO CITY    N/A     59   1  10 CALM      30.43F
PAGE, AZ       SUNNY     45  17  32 CALM      30.46F
GRAND CANYON   SUNNY     53 -22   4 E14G22    30.44F
KINGMAN, AZ    MOSUNNY   60   3  10 NE7       30.33F
FLAGSTAFF, AZ  MOSUNNY   42  -5  13 E9        30.43S

$$

REGIONAL REPORTS    NEVADA/IDAHO/WYOMING

CITY           SKY/WX    TMP DP  RH WIND       PRES   REMARKS
LAS VEGAS, NV  MOSUNNY   63   0   8 CALM      30.34F
ELY, NY        SUNNY     49 -11   8 N6        30.49F
ELKO, NV       SUNNY     40  20  44 CALM      30.52F
POCATELLO, ID  CLOUDY    31  20  63 E7        30.56F WCI  24
BURLEY, ID     SUNNY     37  24  59 E3        30.53F
FORT BRIDGER,    N/A     55   4  12 NW9       30.53S
EVANSTON, WY   SUNNY     46  16  30 NW5       30.52F
ROCK SPRINGS,  SUNNY     46   1  15 W6        30.46F

$$




USA.gov is the U.S. government's official web portal to all federal, state and local government web resources and services.